Location: Newark
(34.0131°N, 4.3314°W)
Time: 12:25:51
(UTC+00:00)

SR - Pass Details

Date: 20 October 2019
Orbit: 574 x 882 km, 66.7° (Epoch: 12 November)

Event Time Altitude Azimuth Distance (km) Brightness Sun altitude
Rises 21:32:20 0° 197° (SSW) 2,952 - -48.5°
Reaches altitude 10° 21:34:33 10° 194° (SSW) 2,088 - -48.9°
Maximum altitude 21:39:14 64° 113° (ESE) 788 - -49.8°
Drops below altitude 10° 21:44:26 10° 32° (NNE) 2,304 - -50.7°
Sets 21:46:58 0° 30° (NNE) 3,285 - -51.2°
